• Join FlightAware (Why Join?)
  • Login
  • US Flag GB Flag 
01:23 EST


 

Airport Tracker/Info


-or-


 

Live Flight TrackerFlight Track Log ✈ N789EX ✈ 23-Oct-2013 ✈ KMWH - KMWH

Flight Track Log - Related Links

Times and Time Zones

All times are in EDT time to prevent confusion due to time zone crossing. See the N789EX flight status page for this flight to view local times or setup timezone preferences in your user account.

Time Position Orientation Groundspeed Altitude Reporting Facility
EDT Latitude Longitude Course Direction KTS MPH feet Rate Location/Type
16:16 47.4317 -119.4381 347° North 284 327 10,000  Level Seattle Center
16:17 47.5197 -119.4581 351° North 297 342 10,600 1,500 Climbing Seattle Center
16:18 47.6150 -119.4814 351° North 354 407 13,100 2,820 Climbing Seattle Center
16:19 47.2086 -119.3191 352° North  Level Estimated
16:19 47.7042 -119.4300 21° North 385 443 16,400  Level Seattle Center
16:20 47.2086 -119.3191 342° North  Level Estimated
16:20 47.7164 -119.2922 82° East 388 447 18,500  Level Seattle Center
16:21 47.7314 -119.1269 82° East 402 463 21,400 1,680 Climbing Seattle Center
16:22 47.7503 -118.9197 82° East 417 480 22,000 240 Climbing Seattle Center
16:23 47.7644 -118.7275 84° East 453 521 22,000  Level Seattle Center
16:24 47.7739 -118.5233 86° East 486 559 22,000 -60 Level Seattle Center
16:25 47.7867 -118.3194 85° East 495 570 21,900 -60 Descending Seattle Center
16:26 47.7997 -118.1111 85° East 503 579 21,900  Level Seattle Center
16:27 47.8122 -117.8997 85° East 511 588 21,900  Level Seattle Center
16:28 47.8167 -117.6869 88° East 514 592 21,900  Level Seattle Center
16:29 47.8086 -117.4719 93° East 519 597 21,900  Level Seattle Center
16:30 47.8031 -117.2514 92° East 526 605 21,900  Level Seattle Center
16:31 47.7850 -117.0306 97° East 527 606 21,900 60 Level Seattle Center
16:32 47.7611 -116.8064 99° East 536 617 22,100 120 Climbing Seattle Center
16:33 47.7392 -116.5806 98° East 546 628 22,200 -180 Climbing Seattle Center
16:34 47.7192 -116.3575 98° East 544 626 21,800 -180 Descending Seattle Center
16:35 47.6992 -116.1347 98° East 544 626 21,900  Climbing Seattle Center
16:36 47.6819 -115.9117 96° East 545 627 21,800 180 Descending Seattle Center
16:37 47.7478 -115.7367 61° Northeast 539 620 22,300  Climbing Seattle Center
16:38 47.8594 -115.8331 330° Northwest 535 616 21,900 -240 Descending Seattle Center
16:39 47.8414 -116.0972 264° West 540 621 21,900  Level Seattle Center
16:40 47.8183 -116.3186 261° West 544 626 22,000 60 Climbing Seattle Center
16:41 47.7897 -116.5369 259° West 541 623 22,100 -60 Climbing Seattle Center
16:42 47.7533 -116.7514 256° West 539 620 21,900 -120 Descending Seattle Center
16:43 47.7503 -116.9681 269° West 547 629 21,900  Level Seattle Center
16:44 47.7828 -117.1828 283° West 546 628 22,000 -60 Climbing Seattle Center
16:45 47.8106 -117.4006 281° West 547 629 21,800 -60 Descending Seattle Center
16:46 47.8322 -117.6219 278° West 547 629 21,900  Climbing Seattle Center
16:47 47.8553 -117.8825 278° West 537 618 21,900 -120 Level Seattle Center
16:48 47.8703 -118.0847 276° West 504 580 21,700  Descending Seattle Center
16:49 47.8831 -118.2844 276° West 492 566 21,900  Climbing Seattle Center
16:50 47.8983 -118.4825 277° West 485 558 21,800  Descending Seattle Center
16:51 47.9139 -118.6803 277° West 483 556 22,000  Climbing Seattle Center
16:57 47.9880 -119.9170 277° West 554 638 22,100 -60 Climbing FlightAware
16:58 48.0020 -120.1240 276° West 547 629 21,900 60 Descending FlightAware
16:58 48.0100 -120.2650 275° West 549 632 22,200 180 Climbing FlightAware
16:59 48.0220 -120.4860 275° West 533 613 22,200 -240 Level FlightAware
17:00 48.0280 -120.5950 275° West 487 560 21,900 -1,200 Descending FlightAware
17:00 48.0340 -120.7080 275° West 460 529 20,900 -1,260 Descending FlightAware
17:01 48.0460 -120.8820 276° West 439 505 20,000 -660 Descending FlightAware
17:02 48.0580 -120.9840 280° West 441 507 19,900 -780 Descending FlightAware
17:02 48.0690 -121.0700 281° West 430 495 19,200 -2,940 Descending FlightAware
17:03 48.0880 -121.2360 280° West 416 479 15,700 -1,920 Descending FlightAware
17:04 48.0900 -121.3650 271° West 352 405 15,900 -180 Climbing FlightAware
17:05 48.0970 -121.4880 275° West 328 377 15,400 -780 Descending FlightAware
17:06 48.1010 -121.5590 275° West 319 367 14,800 -1,260 Descending FlightAware
17:07 48.1080 -121.6940 274° West 305 351 13,500 -1,440 Descending FlightAware
17:07 48.1140 -121.7850 276° West 296 341 12,300 -1,680 Descending FlightAware
17:08 48.1170 -121.8360 275° West 265 305 11,500 -1,620 Descending FlightAware
17:09 48.1220 -121.9300 275° West 216 249 10,100 -1,140 Descending FlightAware
17:09 48.1250 -121.9760 276° West 216 249 9,900 -240 Descending FlightAware
17:10 48.1260 -122.0190 272° West 221 254 9,900 60 Level FlightAware
17:10 48.1270 -122.0660 272° West 221 254 10,000 120 Climbing FlightAware
17:10 48.1270 -122.0740 270° West 220 253 10,000 -120 Level FlightAware
17:11 48.1280 -122.1430 271° West 221 254 9,900 -120 Descending FlightAware
17:12 48.1280 -122.1810 270° West 222 255 9,900  Level FlightAware
17:12 48.1270 -122.2320 268° West 220 253 9,900  Level FlightAware
17:13 48.1270 -122.2670 270° West 220 253 9,900  Level FlightAware
17:13 48.1270 -122.2940 270° West 220 253 9,900  Level FlightAware
17:13 48.1260 -122.3520 269° West 221 254 9,900  Level FlightAware
17:14 48.1240 -122.4100 267° West 221 254 9,900 60 Level FlightAware
17:15 48.1230 -122.4520 268° West 219 252 10,000 180 Climbing FlightAware
17:15 48.1220 -122.5050 268° West 217 250 10,100  Climbing FlightAware
17:16 48.1150 -122.5920 263° West 215 247 10,000 -120 Descending FlightAware
17:17 48.1110 -122.6360 262° West 215 247 10,000 -120 Level FlightAware
17:17 48.1050 -122.6770 258° West 214 246 9,900 -120 Descending FlightAware
17:18 48.0970 -122.7330 258° West 214 246 9,900  Level FlightAware
17:18 48.0900 -122.7720 255° West 214 246 9,900  Level FlightAware
17:19 48.0820 -122.8110 253° West 215 247 9,900  Level FlightAware
17:19 48.0730 -122.8550 253° West 214 246 9,900  Level FlightAware
17:20 48.0630 -122.8950 250° West 214 246 9,900  Level FlightAware
17:20 48.0550 -122.9290 251° West 213 245 9,900 60 Level FlightAware
17:21 48.0330 -123.0090 248° West 235 270 10,000  Climbing FlightAware
17:22 48.0220 -123.0630 253° West 232 267 9,900 -120 Descending FlightAware
17:22 48.0040 -123.0930 228° Southwest 229 264 9,900  Level FlightAware
17:22 47.9950 -123.0940 184° South 231 266 9,900  Level FlightAware
17:23 47.9750 -123.0570 129° Southeast 234 269 9,900  Level FlightAware
17:23 47.9830 -123.0040 77° East 238 274 9,900  Level FlightAware
17:24 47.9940 -122.9550 71° East 236 272 9,900  Level FlightAware
17:24 47.9980 -122.8990 84° East 251 289 9,900  Level FlightAware
17:25 48.0000 -122.8540 86° East 272 313 9,900  Level FlightAware
17:25 48.0030 -122.7990 85° East 273 314 9,900 60 Level FlightAware
17:26 47.9920 -122.7450 107° East 269 310 10,000 60 Climbing FlightAware
17:26 47.9670 -122.7110 138° Southeast 268 308 10,000 -180 Level FlightAware
17:27 47.9300 -122.6630 139° Southeast 266 306 9,800 -840 Descending FlightAware
17:27 47.9020 -122.6260 138° Southeast 262 302 9,000 -2,040 Descending FlightAware
17:28 47.8720 -122.5930 144° Southeast 249 287 7,700 -2,940 Descending FlightAware
17:29 47.8300 -122.5590 151° Southeast 243 280 5,500 -3,180 Descending FlightAware
17:29 47.8000 -122.5320 149° Southeast 237 273 3,800 -3,000 Descending FlightAware
17:30 47.7740 -122.5090 149° Southeast 230 265 2,500 -1,800 Descending FlightAware
17:30 47.7470 -122.4860 150° Southeast 230 265 2,100 -420 Descending FlightAware
17:31 47.7190 -122.4630 151° Southeast 227 261 2,100  Level FlightAware
17:31 47.6970 -122.4440 150° Southeast 226 260 2,100  Level FlightAware
17:31 47.6750 -122.4250 150° Southeast 227 261 2,100  Level FlightAware
17:32 47.6410 -122.3960 150° Southeast 183 211 2,100 -240 Level FlightAware
17:32 47.6280 -122.3850 150° Southeast 160 184 1,900 -660 Descending FlightAware
17:33 47.6110 -122.3710 151° Southeast 155 178 1,600 -840 Descending FlightAware
17:33 47.5910 -122.3540 150° Southeast 157 181 1,100 -960 Descending FlightAware
17:34 47.5730 -122.3390 151° Southeast 154 177 700 -600 Descending FlightAware
17:34 47.5540 -122.3220 149° Southeast 150 173 500 -360 Descending FlightAware
17:35 47.5308 -122.3039 149° Southeast 154 177 300 -300 Descending Seattle Center
17:36 47.5006 -122.2781 150° Southeast 152 175 100 -240 Descending Seattle Center
17:38 47.4491 -121.6929 97° East  Level Estimated
17:45 47.2086 -119.3191 98° East  Level Estimated